{"data":{"norad_id":44906,"epoch":"2026-09-20T03:28:56.232192Z","epoch_age_seconds":92225,"freshness":"FRESH","line1":"1 44906U 19096B   26263.14509528  .00000119  00000+0  78660-3 0  9991","line2":"2 44906  82.5288  26.2287 0014674 331.4373  28.5901 12.42884643305444","mean_motion":12.42884643,"eccentricity":0.0014674,"inclination_deg":82.5288,"raan_deg":26.2287,"arg_perigee_deg":331.4373,"mean_anomaly_deg":28.5901,"bstar":0.0007866,"rev_number":30544,"period_min":115.85950539418,"perigee_km":1482.8463233101,"apogee_km":1505.9506404423,"semimajor_km":7872.5354818762,"source":"CELESTRAK","updated_at":"2026-09-20T09:00:14.573223Z"}}